Regional Weather Roundup
Issued by NWS

Home | Current Version | Previous Version | Graphics & Text | Print | Product List | Glossary On
Versions: 1 2 3 4 5 6 7 8 9 10 11 12 13 14 15 16 17 18 19 20 21 22 23 24 25 26 27 28 29 30 31 32 33 34 35 36 37 38 39 40 41 42 43 44 45 46 47 48 49 50
000
ASUS43 KBIS 010920
RWRND

NORTH DAKOTA REGIONAL WEATHER ROUNDUP
NATIONAL WEATHER SERVICE BISMARCK ND
400 AM CDT WED APR 01 2015

NOTE: "FAIR" INDICATES FEW OR NO CLOUDS BELOW 12,000 FEET WITH NO
SIGNIFICANT WEATHER AND/OR OBSTRUCTIONS TO VISIBILITY.


NDZ001>003-009>011-017-011000-
NORTHWEST NORTH DAKOTA

CITY           SKY/WX    TMP DP  RH WIND       PRES   REMARKS
WILLISTON      MOCLDY    48  35  60 SW6       29.37S
MINOT          CLOUDY    45  34  65 E9        29.39F
MINOT AFB      CLOUDY    46  37  70 E14       29.40F
$$

NDZ018>021-031>035-040>046-011000-
SOUTHWEST NORTH DAKOTA

CITY           SKY/WX    TMP DP  RH WIND       PRES   REMARKS
BISMARCK       CLOUDY    48  36  63 E7        29.45F
DICKINSON      CLOUDY    55  26  32 S12       29.39F
GARRISON         N/A     45  35  68 SE6       29.40F
HETTINGER ARPT CLOUDY    57  25  29 S8        29.44F
$$

NDZ004>008-012>016-024-026-027-054-011000-
NORTHEAST NORTH DAKOTA

CITY           SKY/WX    TMP DP  RH WIND       PRES   REMARKS
GRAND FORKS    PTCLDY    46  29  51 SE15      29.57F
GRND FRKS AFB  PTCLDY    39  28  64 SE10      29.56F
DEVILS LAKE    PTCLDY    41  30  65 SE14      29.48F
$$

NDZ022-023-025-028>030-036>039-047>053-011000-
SOUTHEAST NORTH DAKOTA

CITY           SKY/WX    TMP DP  RH WIND       PRES   REMARKS
FARGO          CLEAR     52  30  43 SE18G28   29.56F
JAMESTOWN      CLOUDY    46  34  62 SE13      29.50F
$$



USA.gov is the U.S. government's official web portal to all federal, state and local government web resources and services.